STARLINK-36956, 68009

Orbit data source: Space-Track

STARLINK-36956, 68009 is a payload satellite owned by SpaceX/Seattle (US) in LEO that was launched on Fri, 27 Feb 2026 UTC via an FALCON 9 launch vehicle from the Air Force Eastern Test Range (AFETR). Payload-class satellites include a variety of spacecraft equipped with specific instruments for various scientific and technological missions. These include communications satellites like Starlink; space stations such as the ISS; scientific satellites like the Hubble; Earth observation satellites from companies like Planet Labs, Umbra, and HawkEye 360; GPS; miniature CubeSats for education and research; and military/defense satellites.

Loading next visibility...
Identifier
68009, 2026-039Z
Orbit
LEO
Country
Flag of USUS
Related business
Manufacturer
SpaceX/Seattle
Mission
Operational Commercial Communications
Bus & Motor
STARLINK V2MO, Unknown motor
Mass
575 kg wet, ~530 kg dry
Launch date (UTC)
2026-02-27 (2 months ago)
Launch vehicle
FALCON 9
Launch site
Air Force Eastern Test Range (AFETR)
Object type
Payload
Rocket body
Debris
Shape & HBR
Box + 2 Pan, 17.7 m
Radar Cross Section
36.964 m²

Expand to show TLE details & history
Last TLE update: 2 days ago

TLE from 2 days ago
0 STARLINK-36956
1 68009U 26039Z   26110.47004435  .00003982  00000-0  15420-3 0  9997
2 68009  43.0034 172.9262 0001625 275.8219  84.2448 15.27569422  8096
Epoch: 2026-04-20T11:16Z
TLE epoch observation values (Epoch: 2026-04-20T11:16:51.831Z)
Latitude
0.00001°
Longitude
155.15053°
Altitude
482.745 km
Speed
7.626 km/s
True Right ascension
11h 31m 42s
True Declination
0° 00' 00"
Sunlit
Object was in full shadow at epoch
Visualization orbit readout
Latitude
Unknown
Longitude
Unknown
Altitude
Unknown
Speed
Unknown
Apparent Right ascension
Unknown
Apparent Declination
Unknown
Sunlit
N/A
Visualization observer readout
Local Sidereal Time
18:52:09
Azimuth
Unknown
Elevation
Unknown
Doppler factor
Unknown
Orbital elements
Apogee altitude
486.141 km
Perigee altitude
483.91 km
Semi-major axis
6,863.162 km
Eccentricity
0.00016
Inclination
43.0034°
RAAN
172.9262°
Arg. of periapsis
275.8219°
True anomaly
84.26333°
Mean anomaly
84.2448°
Eccentric anomaly
84.25406°
Mean motion
3.8173 °/min
Orbital period
94.31 mins
BSTAR
0.0001542
Loading maneuver chart data...
Computing Atmospheric mass density...
Loading historical data...
Loading historical data...
Loading historical data...
Loading historical data...
Loading historical data...
Loading historical data...
Loading historical data...

Documentation

Showing up to 5 results
|